Change the Weather History Date:

Friday, January 3, 2014

  Actual Average Record
Temperature  
Mean Temperature 31 °F -  
Max Temperature 46 °F 44 °F 51 °F (2012)
Min Temperature 14 °F 38 °F -18 °F (1999)
Degree Days  
Heating Degree Days 34    
Moisture  
Dew Point 23 °F    
Average Humidity 76    
Maximum Humidity 89    
Minimum Humidity 48    
Precipitation  
Precipitation 0.00 in - - ()
Sea Level Pressure  
Sea Level Pressure 29.59 in    
Wind  
Wind Speed 21 mph (WNW)    
Max Wind Speed 39 mph    
Max Gust Speed 48 mph    
Visibility 6 miles    
Events Fog , Snow    
Averages and records for this station are not official NWS values.
T = Trace of Precipitation, MM = Missing Value Source: NWS Daily Summary

Daily Weather History Graph

Daily Weather History Graph

Search for Another Location

Airport or City:

Trip Planner

Search our weather history database for the weather conditions in past years. The results will help you decide how hot, cold, wet, or windy it might be!

Date:

Astronomy

Jan. 03, 2014 Rise Set
Actual Time 7:40 AM MST 4:23 PM MST
Civil Twilight 7:05 AM MST 4:57 PM MST
Nautical Twilight 6:27 AM MST 5:35 PM MST
Astronomical Twilight 5:51 AM MST 6:12 PM MST
Moon 8:57 AM MST (1/3) 7:47 PM MST (1/3)
Length of Visible Light 9h 52m
Length of Day
8h 42m
Waxing Crescent, 8% of the Moon is Illuminated
Jan 3
Waxing Crescent
Jan 7
First Quarter
Jan 15
Full
Jan 23
Last Quarter
Jan 30
New

Hourly Weather History & Observations

Time (MST) Temp. Windchill Dew Point Humidity Pressure Visibility Wind Dir Wind Speed Gust Speed Precip Events Conditions
12:51 AM 34.0 °F 25.5 °F 23.0 °F 64% 29.71 in 10.0 mi WSW 11.5 mph - N/A   Clear
1:51 AM 34.0 °F 25.5 °F 23.0 °F 64% 29.68 in 10.0 mi West 11.5 mph - N/A   Clear
2:51 AM 36.0 °F 28.0 °F 24.1 °F 62% 29.63 in 10.0 mi WSW 11.5 mph - N/A   Clear
3:51 AM 37.0 °F 28.5 °F 25.0 °F 62% 29.59 in 10.0 mi WSW 13.8 mph - N/A   Mostly Cloudy
4:51 AM 37.9 °F 28.5 °F 26.1 °F 62% 29.54 in 10.0 mi WSW 17.3 mph 27.6 mph N/A   Clear
5:51 AM 37.9 °F 29.6 °F 26.1 °F 62% 29.52 in 10.0 mi SW 13.8 mph - N/A   Partly Cloudy
6:51 AM 37.0 °F 30.4 °F 26.1 °F 65% 29.48 in 10.0 mi WNW 9.2 mph - N/A   Clear
7:51 AM 37.9 °F 28.5 °F 27.0 °F 65% 29.46 in 10.0 mi West 17.3 mph - N/A   Overcast
8:51 AM 37.0 °F 29.8 °F 28.0 °F 70% 29.44 in 10.0 mi West 10.4 mph - N/A   Overcast
9:51 AM 41.0 °F 33.1 °F 28.0 °F 60% 29.40 in 10.0 mi SW 15.0 mph - 0.00 in   Overcast
10:51 AM 46.9 °F - 28.0 °F 48% 29.35 in 10.0 mi WSW 25.3 mph 31.1 mph 0.00 in   Overcast
11:51 AM 43.0 °F 34.2 °F 28.0 °F 56% 29.36 in 10.0 mi West 20.7 mph - 0.00 in   Overcast
12:51 PM 39.9 °F 30.2 °F 28.0 °F 63% 29.37 in 10.0 mi West 20.7 mph - N/A   Mostly Cloudy
1:51 PM 39.0 °F 29.3 °F 28.0 °F 65% 29.40 in 10.0 mi WNW 19.6 mph - N/A   Partly Cloudy
2:51 PM 37.9 °F 28.2 °F 28.9 °F 70% 29.42 in 10.0 mi West 18.4 mph - N/A   Scattered Clouds
3:51 PM 37.9 °F 26.6 °F 27.0 °F 65% 29.42 in 10.0 mi WNW 25.3 mph 35.7 mph N/A   Scattered Clouds
4:51 PM 36.0 °F 21.6 °F 28.0 °F 73% 29.46 in 7.0 mi WNW 38.0 mph 46.0 mph N/A   Overcast
4:56 PM 34.0 °F 20.1 °F 30.0 °F 85% 29.43 in 2.5 mi WNW 31.1 mph 46.0 mph 0.00 in Snow Light Snow
5:00 PM 34.0 °F 20.8 °F 30.0 °F 85% 29.43 in 1.8 mi WNW 27.6 mph 46.0 mph 0.00 in Snow Light Snow
5:05 PM 34.0 °F 20.1 °F 28.9 °F 82% 29.43 in 3.0 mi WNW 31.1 mph 40.3 mph 0.00 in Snow Light Snow
5:10 PM 34.0 °F 21.0 °F 28.9 °F 82% 29.44 in 8.0 mi WNW 26.5 mph 40.3 mph 0.00 in Snow Light Snow
5:21 PM 34.0 °F 21.3 °F 28.9 °F 82% 29.45 in 7.0 mi WNW 25.3 mph 36.8 mph 0.00 in Snow Light Snow
5:27 PM 32.0 °F 17.9 °F 28.9 °F 88% 29.46 in 5.0 mi NW 28.8 mph 41.4 mph 0.00 in Snow Light Snow
5:32 PM 32.0 °F 17.2 °F 28.0 °F 85% 29.47 in 6.0 mi NW 32.2 mph 47.2 mph 0.00 in   Overcast
5:42 PM 28.9 °F 12.1 °F 25.0 °F 85% 29.50 in 10.0 mi NNW 36.8 mph 47.2 mph 0.00 in   Overcast
5:51 PM 27.0 °F 9.2 °F 23.0 °F 85% 29.57 in 10.0 mi NNW 38.0 mph 44.9 mph 0.00 in   Overcast
6:15 PM 25.0 °F 6.2 °F 21.0 °F 85% 29.56 in 2.0 mi NNW 39.1 mph 48.3 mph 0.00 in Snow Light Snow
6:20 PM 25.0 °F 7.3 °F 21.0 °F 85% 29.58 in 0.8 mi NNW 33.4 mph 48.3 mph 0.00 in Snow Light Snow
6:25 PM 24.1 °F 6.6 °F 21.0 °F 88% 29.59 in 0.5 mi NNW 31.1 mph 41.4 mph 0.00 in Fog , Snow Snow
6:51 PM 21.9 °F 3.1 °F 19.0 °F 89% 29.72 in 0.5 mi NNW 33.4 mph 43.7 mph 0.00 in Fog , Snow Snow
7:51 PM 21.0 °F 2.2 °F 18.0 °F 88% 29.79 in 0.5 mi NNW 32.2 mph 42.6 mph 0.00 in Fog , Snow Light Snow
8:04 PM 21.0 °F 3.6 °F 18.0 °F 88% 29.73 in 1.0 mi NNW 26.5 mph 38.0 mph 0.00 in Snow Light Snow
8:14 PM 19.9 °F 0.2 °F 17.1 °F 89% 29.74 in 0.5 mi NNW 34.5 mph 42.6 mph 0.00 in Fog , Snow Light Freezing Fog
8:27 PM 19.9 °F -0.1 °F 16.0 °F 85% 29.75 in 1.2 mi NNW 35.7 mph 43.7 mph 0.00 in Snow Blowing Snow
8:51 PM 19.9 °F 0.7 °F 16.0 °F 85% 29.86 in 1.5 mi NW 32.2 mph 39.1 mph 0.00 in Snow Blowing Snow
9:21 PM 19.0 °F -0.8 °F 15.1 °F 85% 29.79 in 1.2 mi NW 33.4 mph 38.0 mph N/A Snow Blowing Snow
9:36 PM 18.0 °F -0.8 °F 14.0 °F 84% 29.80 in 2.0 mi NW 27.6 mph 40.3 mph N/A Snow Blowing Snow
9:48 PM 17.6 °F 0.1 °F 12.2 °F 79% 29.81 in 3.0 mi NW 23.0 mph 34.5 mph N/A Snow Blowing Snow
9:51 PM 18.0 °F -0.2 °F 12.9 °F 81% 29.90 in 4.0 mi NW 25.3 mph 34.5 mph N/A Snow Blowing Snow
10:37 PM 16.0 °F -0.9 °F 10.0 °F 77% 29.86 in 10.0 mi NW 19.6 mph 25.3 mph 0.00 in   Scattered Clouds
10:51 PM 16.0 °F -0.9 °F 10.0 °F 77% 29.93 in 10.0 mi NW 19.6 mph - 0.00 in   Clear
11:51 PM 14.0 °F -3.9 °F 8.1 °F 77% 29.97 in 10.0 mi NW 20.7 mph 32.2 mph N/A   Clear